User: anonymous   Login
Location: CNYAC Observatory
(43.2150°N, 74.9500°W)
Time: 02:45:27
(UTC-04:00)
Language:

Meteor 1-22 Rocket - Orbit

View from above orbital plane
View from above orbital plane
View from above satellite
View from above satellite

Ground track
Ground track

The orbit data is extracted from the following two-line orbital elements,

1 08294U 75087B   16236.37587952 -.00000071  00000-0 -46608-4 0  9992
2 08294  81.2197 312.8181 0107632 162.1627 198.3369 14.08591295102928
Epoch (UTC): 23 August 2016 09:01:15
Eccentricity: 0.0107632
inclination: 81.2197°
perigee height: 786 km
apogee height: 942 km
right ascension of ascending node: 312.8181°
argument of perigee: 162.1627°
revolutions per day: 14.08591295
mean anomaly at epoch: 198.3369°
orbit number at epoch: 10292

The dashed part of the orbit path shows where the satellite is in the earth's shadow,  

DLR